Flag for Argentina Weather past 2 weeks in Salta, Salta, Argentina

Now
91 °F

Sunny.


Feels Like: 87 °F
Forecast: 46 / 88 °F
Wind: 5 mph from North

Location: Salta Aerodrome

Current Time: Aug 30, 2015 at 3:13:08 PM

Latest Report: Aug 30, 2015 at 2:00 PM


Visibility: 10 mi

Pressure: 29.92 "Hg (26.22 "Hg at 1184m altitude)

Humidity: 17%

Dew point: 41 °F

Location of SaltaLocation

Historic Weather in Salta — Graph

°F

Salta temperature yesterday

Maximum temperature yesterday: 91 °F (at 3:00 PM)
Minimum temperature yesterday: 46 °F (at 7:00 AM)
Average temperature yesterday: 68 °F

Past Weeks' High & Low Weather Summary

 TemperatureHumidityPressure
High91 °F (Aug 29, 3:00 PM)100% (Aug 16, 5:00 AM)30.24 "Hg (Aug 16, 5:00 AM)
Low34 °F (Aug 18, 6:00 AM)8% (Aug 22, 5:00 PM)29.74 "Hg (Aug 22, 3:00 PM)
Average58 °F57%30.04 "Hg
* Reported Aug 15 1:00 PM — Aug 30 1:00 PM, Salta, Weather by CustomWeather, © 2015

Note: Actual official high and low records may vary slightly from our data, if they occured in-between our weather recording intervals... More about our weather records

Advertising

Salta weather history for previous 24 hours

 ConditionsComfort  
Time TempWeatherWind HumidityBarometerVisibility
1:00 PM
Sun, Aug 30
88 °FSunny.2 mph21%29.95 "Hg10 mi
12:00 PM82 °FSunny.3 mph26%29.98 "Hg10 mi
11:00 AM75 °FSunny.3 mph31%30.01 "Hg10 mi
10:00 AM70 °FSunny.2 mph43%30.01 "Hg10 mi
9:00 AM57 °FSunny.No wind72%29.98 "Hg10 mi
8:00 AM50 °FSunny.2 mph76%29.98 "Hg10 mi
7:00 AM48 °FSunny.No wind76%29.95 "Hg10 mi
6:00 AM48 °FClear.No wind82%29.95 "Hg10 mi
5:00 AM52 °FClear.3 mph72%29.95 "Hg10 mi
4:00 AM54 °FClear.3 mph67%29.95 "Hg10 mi
3:00 AM54 °FClear.2 mph67%29.98 "Hg10 mi
2:00 AM54 °FClear.No wind67%29.98 "Hg10 mi
1:00 AM57 °FClear.3 mph59%30.01 "Hg10 mi
12:00 AM61 °FClear.No wind55%30.01 "Hg10 mi
11:00 PM
Sat, Aug 29
61 °FClear.No wind52%30.01 "Hg10 mi
10:00 PM68 °FClear.7 mph38%30.01 "Hg10 mi
9:00 PM72 °FClear.5 mph36%29.98 "Hg10 mi
8:00 PM75 °FClear.8 mph25%29.95 "Hg10 mi
7:00 PM82 °FClear.14 mph17%29.95 "Hg10 mi
6:00 PM86 °FSunny.15 mph15%29.92 "Hg10 mi
5:00 PM90 °FSunny.14 mph16%29.89 "Hg10 mi
4:00 PM91 °FSunny.12 mph14%29.92 "Hg10 mi
3:00 PM91 °FSunny.7 mph15%29.95 "Hg10 mi
Weather by CustomWeather, © 2015

See weather overviewHow to use our weather pages